Location: Caseificio
(44.7500°N, 11.0500°E)
Time: 22:42:02
(UTC+00:00)

Meteor 1-24 Rocket - Pass Details

Date: 11 October 2022
Orbit: 791 x 926 km, 81.3° (Epoch: 08 December)

Event Time Altitude Azimuth Distance (km) Brightness Sun altitude
Rises 17:56:37 0° 346° (NNW) 3,310 7.0 -14.7°
Reaches altitude 10° 17:59:00 10° 344° (NNW) 2,385 6.3 -15.1°
Maximum altitude 18:04:19 68° 263° (W) 880 4.0 -16.0°
Drops below altitude 10° 18:09:46 10° 182° (S) 2,437 6.0 -17.0°
Sets 18:12:13 0° 179° (S) 3,387 6.8 -17.4°
